Monroe, NC

3:26 PM EDT on September 26, 2017 (GMT -0400)
Monroe

Weather History for KEQY - February, 2013

Change the Weather History Date:

Sunday, February 10, 2013

  Actual Average (KCLT) Record (KCLT)
Temperature  
Mean Temperature 45 °F -  
Max Temperature 57 °F 51 °F 76 °F (1938)
Min Temperature 33 °F 29 °F 8 °F (1934)
Degree Days  
Heating Degree Days 20    
Moisture  
Dew Point 29 °F    
Average Humidity 54    
Maximum Humidity 96    
Minimum Humidity 25    
Precipitation  
Precipitation 0.06 in - - ()
Sea Level Pressure  
Sea Level Pressure 30.37 in    
Wind  
Wind Speed 2 mph (SE)    
Max Wind Speed 6 mph    
Max Gust Speed -    
Visibility 10 miles    
Events Rain    
Averages and records for this station are not official NWS values.
T = Trace of Precipitation, MM = Missing Value Source: NWS Daily Summary

Daily Weather History Graph

Daily Weather History Graph

Search for Another Location

Airport or City:

Trip Planner

Search our weather history database for the weather conditions in past years. The results will help you decide how hot, cold, wet, or windy it might be!

Date:

Astronomy

Feb. 10, 2013 Rise Set
Actual Time 7:13 AM EST 6:00 PM EST
Civil Twilight 6:47 AM EST 6:26 PM EST
Nautical Twilight 6:17 AM EST 6:56 PM EST
Astronomical Twilight 5:47 AM EST 7:26 PM EST
Moon 7:05 AM EST (2/10) 6:45 PM EST (2/10)
Length of Visible Light 11h 39m
Length of Day
10h 47m
New Moon, 0% of the Moon is Illuminated
Feb 10
New Moon
Feb 17
First Quarter
Feb 25
Full
Mar 4
Last Quarter
Mar 11
New

Hourly Weather History & Observations

Time (EST) Temp. Windchill Dew Point Humidity Pressure Visibility Wind Dir Wind Speed Gust Speed Precip Events Conditions
12:53 AM 37.0 °F - 19.9 °F 50% 30.38 in 10.0 mi Calm Calm - N/A   Clear
1:53 AM 36.0 °F - 21.0 °F 55% 30.39 in 10.0 mi Calm Calm - N/A   Clear
2:53 AM 37.0 °F - 24.1 °F 59% 30.40 in 10.0 mi Calm Calm - N/A   Clear
3:53 AM 37.0 °F - 21.0 °F 52% 30.40 in 10.0 mi Calm Calm - N/A   Clear
4:53 AM 37.0 °F - 21.0 °F 52% 30.40 in 10.0 mi Calm Calm - N/A   Clear
5:53 AM 33.1 °F - 23.0 °F 66% 30.42 in 10.0 mi Calm Calm - N/A   Clear
6:53 AM 34.0 °F - 23.0 °F 64% 30.44 in 10.0 mi Calm Calm - N/A   Clear
7:53 AM 36.0 °F - 24.1 °F 62% 30.49 in 10.0 mi Calm Calm - N/A   Clear
8:53 AM 39.9 °F 37.8 °F 23.0 °F 51% 30.48 in 10.0 mi Variable 3.5 mph - N/A   Clear
9:53 AM 45.0 °F 41.8 °F 21.9 °F 40% 30.48 in 10.0 mi Variable 5.8 mph - N/A   Clear
10:53 AM 48.9 °F - 19.9 °F 32% 30.49 in 10.0 mi SE 5.8 mph - N/A   Clear
11:53 AM 51.1 °F - 21.9 °F 32% 30.46 in 10.0 mi Calm Calm - N/A   Clear
12:53 PM 52.0 °F - 21.9 °F 31% 30.42 in 10.0 mi Variable 3.5 mph - N/A   Clear
1:53 PM 55.9 °F - 21.0 °F 26% 30.38 in 10.0 mi ESE 5.8 mph - N/A   Clear
2:53 PM 57.9 °F - 21.9 °F 25% 30.33 in 10.0 mi Variable 3.5 mph - N/A   Clear
3:53 PM 57.9 °F - 30.0 °F 35% 30.31 in 10.0 mi Variable 4.6 mph - N/A   Clear
4:53 PM 57.0 °F - 37.0 °F 47% 30.31 in 10.0 mi Variable 4.6 mph - N/A   Mostly Cloudy
5:53 PM 55.9 °F - 39.0 °F 53% 30.29 in 10.0 mi Variable 3.5 mph - N/A   Overcast
6:53 PM 55.0 °F - 39.0 °F 55% 30.28 in 10.0 mi Variable 3.5 mph - N/A   Overcast
7:53 PM 54.0 °F - 39.9 °F 59% 30.29 in 10.0 mi Variable 3.5 mph - N/A   Overcast
8:53 PM 51.1 °F - 43.0 °F 74% 30.31 in 9.0 mi Calm Calm - 0.00 in Rain Light Rain
9:53 PM 48.0 °F - 46.9 °F 96% 30.31 in 4.0 mi Calm Calm - 0.04 in Rain Rain
10:53 PM 48.9 °F - 46.9 °F 93% 30.26 in 9.0 mi Variable 3.5 mph - 0.02 in Rain Light Rain
11:53 PM 50.0 °F - 48.9 °F 96% 30.23 in 10.0 mi Variable 4.6 mph - 0.00 in Rain Light Rain